Year,Month,Day,Hour,Minute,Value (Times are PST for temperature in C)
2012,11,10,00,00,4.50
2012,11,10,00,01,4.50
2012,11,10,00,02,4.60
2012,11,10,00,03,4.60
2012,11,10,00,04,4.60
2012,11,10,00,05,4.60
2012,11,10,00,06,4.50
2012,11,10,00,07,4.50
2012,11,10,00,08,4.40
2012,11,10,00,09,4.50
2012,11,10,00,10,4.60
2012,11,10,00,11,4.60
2012,11,10,00,12,4.60
2012,11,10,00,13,4.60
2012,11,10,00,14,4.70
2012,11,10,00,15,4.70
2012,11,10,00,16,4.70
2012,11,10,00,17,4.70
2012,11,10,00,18,4.80
2012,11,10,00,19,4.80
2012,11,10,00,20,4.80
2012,11,10,00,21,4.80
2012,11,10,00,22,4.90
2012,11,10,00,23,4.90
2012,11,10,00,24,4.90
2012,11,10,00,25,4.90
2012,11,10,00,26,4.90
2012,11,10,00,27,5.00
2012,11,10,00,28,5.00
2012,11,10,00,29,5.00
2012,11,10,00,30,5.00
2012,11,10,00,31,4.90
2012,11,10,00,32,4.90
2012,11,10,00,33,4.90
2012,11,10,00,34,4.90
2012,11,10,00,35,4.90
2012,11,10,00,36,4.90
2012,11,10,00,37,5.00
2012,11,10,00,38,5.00
2012,11,10,00,39,5.10
2012,11,10,00,40,5.10
2012,11,10,00,41,5.10
2012,11,10,00,42,5.10
2012,11,10,00,43,5.10
2012,11,10,00,44,5.10
2012,11,10,00,45,5.00
2012,11,10,00,46,5.00
2012,11,10,00,47,5.00
2012,11,10,00,48,5.00
2012,11,10,00,49,5.10
2012,11,10,00,50,5.10
2012,11,10,00,51,5.10
2012,11,10,00,52,5.10
2012,11,10,00,53,5.10
2012,11,10,00,54,5.10
2012,11,10,00,55,5.10
2012,11,10,00,56,5.10
2012,11,10,00,57,5.10
2012,11,10,00,58,5.10
2012,11,10,00,59,5.10
2012,11,10,01,00,5.20
2012,11,10,01,01,5.20
2012,11,10,01,02,5.10
2012,11,10,01,03,5.10
2012,11,10,01,04,5.10
2012,11,10,01,05,5.10
2012,11,10,01,06,5.10
2012,11,10,01,07,5.10
2012,11,10,01,08,5.20
2012,11,10,01,09,5.10
2012,11,10,01,10,5.10
2012,11,10,01,11,5.10
2012,11,10,01,12,5.10
2012,11,10,01,13,5.10
2012,11,10,01,14,5.10
2012,11,10,01,15,5.10
2012,11,10,01,16,5.10
2012,11,10,01,17,5.00
2012,11,10,01,18,5.00
2012,11,10,01,19,5.00
2012,11,10,01,20,5.00
2012,11,10,01,21,5.00
2012,11,10,01,22,5.00
2012,11,10,01,23,5.00
2012,11,10,01,24,5.00
2012,11,10,01,25,5.00
2012,11,10,01,26,4.90
2012,11,10,01,27,5.00
2012,11,10,01,28,5.00
2012,11,10,01,29,5.00
2012,11,10,01,30,5.00
2012,11,10,01,31,5.00
2012,11,10,01,32,5.00
2012,11,10,01,33,5.00
2012,11,10,01,34,5.10
2012,11,10,01,35,5.00
2012,11,10,01,36,5.00
2012,11,10,01,37,5.00
2012,11,10,01,38,5.00
2012,11,10,01,39,5.00
2012,11,10,01,40,5.00
2012,11,10,01,41,5.00
2012,11,10,01,42,5.00
2012,11,10,01,43,5.00
2012,11,10,01,44,4.90
2012,11,10,01,45,4.90
2012,11,10,01,46,4.90
2012,11,10,01,47,4.90
2012,11,10,01,48,5.00
2012,11,10,01,49,5.00
2012,11,10,01,50,5.00
2012,11,10,01,51,5.10
2012,11,10,01,52,5.10
2012,11,10,01,53,5.10
2012,11,10,01,54,5.10
2012,11,10,01,55,5.10
2012,11,10,01,56,5.00
2012,11,10,01,57,5.00
2012,11,10,01,58,5.00
2012,11,10,01,59,5.00
2012,11,10,02,00,4.90
2012,11,10,02,01,4.90
2012,11,10,02,02,4.90
2012,11,10,02,03,5.00
2012,11,10,02,04,5.00
2012,11,10,02,05,5.00
2012,11,10,02,06,4.90
2012,11,10,02,07,4.90
2012,11,10,02,08,4.90
2012,11,10,02,09,4.90
2012,11,10,02,10,4.90
2012,11,10,02,11,4.90
2012,11,10,02,12,4.90
2012,11,10,02,13,4.90
2012,11,10,02,14,4.90
2012,11,10,02,15,4.90
2012,11,10,02,16,5.00
2012,11,10,02,17,5.00
2012,11,10,02,18,5.00
2012,11,10,02,19,5.00
2012,11,10,02,20,4.90
2012,11,10,02,21,4.90
2012,11,10,02,22,4.90
2012,11,10,02,23,4.90
2012,11,10,02,24,4.90
2012,11,10,02,25,4.90
2012,11,10,02,26,4.90
2012,11,10,02,27,4.90
2012,11,10,02,28,4.90
2012,11,10,02,29,4.80
2012,11,10,02,30,4.80
2012,11,10,02,31,4.80
2012,11,10,02,32,4.80
2012,11,10,02,33,4.80
2012,11,10,02,34,4.80
2012,11,10,02,35,4.80
2012,11,10,02,36,4.80
2012,11,10,02,37,4.80
2012,11,10,02,38,4.70
2012,11,10,02,39,4.70
2012,11,10,02,40,4.70
2012,11,10,02,41,4.70
2012,11,10,02,42,4.60
2012,11,10,02,43,4.70
2012,11,10,02,44,4.70
2012,11,10,02,45,4.70
2012,11,10,02,46,4.60
2012,11,10,02,47,4.60
2012,11,10,02,48,4.60
2012,11,10,02,49,4.60
2012,11,10,02,50,4.60
2012,11,10,02,51,4.60
2012,11,10,02,52,4.60
2012,11,10,02,53,4.60
2012,11,10,02,54,4.60
2012,11,10,02,55,4.60
2012,11,10,02,56,4.60
2012,11,10,02,57,4.60
2012,11,10,02,58,4.60
2012,11,10,02,59,4.50
2012,11,10,03,00,4.50
2012,11,10,03,01,4.50
2012,11,10,03,02,4.50
2012,11,10,03,03,4.50
2012,11,10,03,04,4.50
2012,11,10,03,05,4.50
2012,11,10,03,06,4.50
2012,11,10,03,07,4.50
2012,11,10,03,08,4.50
2012,11,10,03,09,4.50
2012,11,10,03,10,4.50
2012,11,10,03,11,4.50
2012,11,10,03,12,4.50
2012,11,10,03,13,4.50
2012,11,10,03,14,4.50
2012,11,10,03,15,4.50
2012,11,10,03,16,4.50
2012,11,10,03,17,4.40
2012,11,10,03,18,4.40
2012,11,10,03,19,4.40
2012,11,10,03,20,4.40
2012,11,10,03,21,4.30
2012,11,10,03,22,4.30
2012,11,10,03,23,4.30
2012,11,10,03,24,4.30
2012,11,10,03,25,4.40
2012,11,10,03,26,4.40
2012,11,10,03,27,4.50
2012,11,10,03,28,4.50
2012,11,10,03,29,4.50
2012,11,10,03,30,4.40
2012,11,10,03,31,4.50
2012,11,10,03,32,4.50
2012,11,10,03,33,4.50
2012,11,10,03,34,4.40
2012,11,10,03,35,4.40
2012,11,10,03,36,4.40
2012,11,10,03,37,4.40
2012,11,10,03,38,4.40
2012,11,10,03,39,4.40
2012,11,10,03,40,4.40
2012,11,10,03,41,4.40
2012,11,10,03,42,4.40
2012,11,10,03,43,4.30
2012,11,10,03,44,4.30
2012,11,10,03,45,4.30
2012,11,10,03,46,4.30
2012,11,10,03,47,4.30
2012,11,10,03,48,4.30
2012,11,10,03,49,4.20
2012,11,10,03,50,4.20
2012,11,10,03,51,4.20
2012,11,10,03,52,4.10
2012,11,10,03,53,4.10
2012,11,10,03,54,4.10
2012,11,10,03,55,4.10
2012,11,10,03,56,4.10
2012,11,10,03,57,4.10
2012,11,10,03,58,4.10
2012,11,10,03,59,4.10
2012,11,10,04,00,4.00
2012,11,10,04,01,3.90
2012,11,10,04,02,3.90
2012,11,10,04,03,3.90
2012,11,10,04,04,3.90
2012,11,10,04,05,3.90
2012,11,10,04,06,3.90
2012,11,10,04,07,3.80
2012,11,10,04,08,3.80
2012,11,10,04,09,3.80
2012,11,10,04,10,3.80
2012,11,10,04,11,3.80
2012,11,10,04,12,3.80
2012,11,10,04,13,3.80
2012,11,10,04,14,3.80
2012,11,10,04,15,3.80
2012,11,10,04,16,3.90
2012,11,10,04,17,3.90
2012,11,10,04,18,3.90
2012,11,10,04,19,3.90
2012,11,10,04,20,4.00
2012,11,10,04,21,4.00
2012,11,10,04,22,4.00
2012,11,10,04,23,4.00
2012,11,10,04,24,4.00
2012,11,10,04,25,4.00
2012,11,10,04,26,4.00
2012,11,10,04,27,4.00
2012,11,10,04,28,4.00
2012,11,10,04,29,4.00
2012,11,10,04,30,4.00
2012,11,10,04,31,4.10
2012,11,10,04,32,4.10
2012,11,10,04,33,4.10
2012,11,10,04,34,4.10
2012,11,10,04,35,4.10
2012,11,10,04,36,4.10
2012,11,10,04,37,4.10
2012,11,10,04,38,4.10
2012,11,10,04,39,4.10
2012,11,10,04,40,4.10
2012,11,10,04,41,4.10
2012,11,10,04,42,4.10
2012,11,10,04,43,4.10
2012,11,10,04,44,4.20
2012,11,10,04,45,4.20
2012,11,10,04,46,4.20
2012,11,10,04,47,4.20
2012,11,10,04,48,4.10
2012,11,10,04,49,4.10
2012,11,10,04,50,4.10
2012,11,10,04,51,4.10
2012,11,10,04,52,4.00
2012,11,10,04,53,4.00
2012,11,10,04,54,3.90
2012,11,10,04,55,3.90
2012,11,10,04,56,4.00
2012,11,10,04,57,3.90
2012,11,10,04,58,3.90
2012,11,10,04,59,3.90
2012,11,10,05,00,3.90
2012,11,10,05,01,3.90
2012,11,10,05,02,3.90
2012,11,10,05,03,3.80
2012,11,10,05,04,3.80
2012,11,10,05,05,3.80
2012,11,10,05,06,3.80
2012,11,10,05,07,3.80
2012,11,10,05,08,3.80
2012,11,10,05,09,3.80
2012,11,10,05,10,3.80
2012,11,10,05,11,3.80
2012,11,10,05,12,3.90
2012,11,10,05,13,3.90
2012,11,10,05,14,3.80
2012,11,10,05,15,3.80
2012,11,10,05,16,3.80
2012,11,10,05,17,3.90
2012,11,10,05,18,3.90
2012,11,10,05,19,3.90
2012,11,10,05,20,3.90
2012,11,10,05,21,3.90
2012,11,10,05,22,3.90
2012,11,10,05,23,3.90
2012,11,10,05,24,3.90
2012,11,10,05,25,3.90
2012,11,10,05,26,3.90
2012,11,10,05,27,3.90
2012,11,10,05,28,3.90
2012,11,10,05,29,3.90
2012,11,10,05,30,3.90
2012,11,10,05,31,3.90
2012,11,10,05,32,4.00
2012,11,10,05,33,4.00
2012,11,10,05,34,4.00
2012,11,10,05,35,4.00
2012,11,10,05,36,4.00
2012,11,10,05,37,4.10
2012,11,10,05,38,4.10
2012,11,10,05,39,4.10
2012,11,10,05,40,4.10
2012,11,10,05,41,4.10
2012,11,10,05,42,4.10
2012,11,10,05,43,4.10
2012,11,10,05,44,4.10
2012,11,10,05,45,4.10
2012,11,10,05,46,4.10
2012,11,10,05,47,4.00
2012,11,10,05,48,3.90
2012,11,10,05,49,3.90
2012,11,10,05,50,3.90
2012,11,10,05,51,3.90
2012,11,10,05,52,3.90
2012,11,10,05,53,3.90
2012,11,10,05,54,3.90
2012,11,10,05,55,3.80
2012,11,10,05,56,3.80
2012,11,10,05,57,3.80
2012,11,10,05,58,3.80
2012,11,10,05,59,3.80
2012,11,10,06,00,3.80
2012,11,10,06,01,3.70
2012,11,10,06,02,3.70
2012,11,10,06,03,3.70
2012,11,10,06,04,3.70
2012,11,10,06,05,3.70
2012,11,10,06,06,3.70
2012,11,10,06,07,3.70
2012,11,10,06,08,3.70
2012,11,10,06,09,3.70
2012,11,10,06,10,3.70
2012,11,10,06,11,3.70
2012,11,10,06,12,3.70
2012,11,10,06,13,3.70
2012,11,10,06,14,3.70
2012,11,10,06,15,3.60
2012,11,10,06,16,3.60
2012,11,10,06,17,3.60
2012,11,10,06,18,3.60
2012,11,10,06,19,3.60
2012,11,10,06,20,3.60
2012,11,10,06,21,3.60
2012,11,10,06,22,3.60
2012,11,10,06,23,3.60
2012,11,10,06,24,3.60
2012,11,10,06,25,3.60
2012,11,10,06,26,3.60
2012,11,10,06,27,3.60
2012,11,10,06,28,3.60
2012,11,10,06,29,3.50
2012,11,10,06,30,3.40
2012,11,10,06,31,3.40
2012,11,10,06,32,3.30
2012,11,10,06,33,3.30
2012,11,10,06,34,3.30
2012,11,10,06,35,3.20
2012,11,10,06,36,3.20
2012,11,10,06,37,3.10
2012,11,10,06,38,3.10
2012,11,10,06,39,3.10
2012,11,10,06,40,3.10
2012,11,10,06,41,3.10
2012,11,10,06,42,3.10
2012,11,10,06,43,3.10
2012,11,10,06,44,3.10
2012,11,10,06,45,3.10
2012,11,10,06,46,3.10
2012,11,10,06,47,3.10
2012,11,10,06,48,3.10
2012,11,10,06,49,3.20
2012,11,10,06,50,3.20
2012,11,10,06,51,3.30
2012,11,10,06,52,3.30
2012,11,10,06,53,3.30
2012,11,10,06,54,3.30
2012,11,10,06,55,3.40
2012,11,10,06,56,3.40
2012,11,10,06,57,3.40
2012,11,10,06,58,3.40
2012,11,10,06,59,3.40
2012,11,10,07,00,3.40
2012,11,10,07,01,3.40
2012,11,10,07,02,3.40
2012,11,10,07,03,3.40
2012,11,10,07,04,3.40
2012,11,10,07,05,3.40
2012,11,10,07,06,3.40
2012,11,10,07,07,3.40
2012,11,10,07,08,3.40
2012,11,10,07,09,3.40
2012,11,10,07,10,3.30
2012,11,10,07,11,3.30
2012,11,10,07,12,3.30
2012,11,10,07,13,3.30
2012,11,10,07,14,3.30
2012,11,10,07,15,3.30
2012,11,10,07,16,3.30
2012,11,10,07,17,3.30
2012,11,10,07,18,3.20
2012,11,10,07,19,3.20
2012,11,10,07,20,3.20
2012,11,10,07,21,3.30
2012,11,10,07,22,3.20
2012,11,10,07,23,3.20
2012,11,10,07,24,3.20
2012,11,10,07,25,3.20
2012,11,10,07,26,3.20
2012,11,10,07,27,3.20
2012,11,10,07,28,3.20
2012,11,10,07,29,3.20
2012,11,10,07,30,3.20
2012,11,10,07,31,3.20
2012,11,10,07,32,3.20
2012,11,10,07,33,3.30
2012,11,10,07,34,3.30
2012,11,10,07,35,3.30
2012,11,10,07,36,3.30
2012,11,10,07,37,3.30
2012,11,10,07,38,3.40
2012,11,10,07,39,3.40
2012,11,10,07,40,3.40
2012,11,10,07,41,3.40
2012,11,10,07,42,3.50
2012,11,10,07,43,3.50
2012,11,10,07,44,3.60
2012,11,10,07,45,3.60
2012,11,10,07,46,3.60
2012,11,10,07,47,3.60
2012,11,10,07,48,3.60
2012,11,10,07,49,3.60
2012,11,10,07,50,3.60
2012,11,10,07,51,3.60
2012,11,10,07,52,3.60
2012,11,10,07,53,3.60
2012,11,10,07,54,3.60
2012,11,10,07,55,3.60
2012,11,10,07,56,3.60
2012,11,10,07,57,3.60
2012,11,10,07,58,3.60
2012,11,10,07,59,3.60
2012,11,10,08,00,3.60
2012,11,10,08,01,3.60
2012,11,10,08,02,3.50
2012,11,10,08,03,3.50
2012,11,10,08,04,3.50
2012,11,10,08,05,3.50
2012,11,10,08,06,3.40
2012,11,10,08,07,3.40
2012,11,10,08,08,3.40
2012,11,10,08,09,3.40
2012,11,10,08,10,3.40
2012,11,10,08,11,3.50
2012,11,10,08,12,3.50
2012,11,10,08,13,3.50
2012,11,10,08,14,3.50
2012,11,10,08,15,3.50
2012,11,10,08,16,3.50
2012,11,10,08,17,3.50
2012,11,10,08,18,3.50
2012,11,10,08,19,3.60
2012,11,10,08,20,3.60
2012,11,10,08,21,3.60
2012,11,10,08,22,3.60
2012,11,10,08,23,3.60
2012,11,10,08,24,3.60
2012,11,10,08,25,3.70
2012,11,10,08,26,3.70
2012,11,10,08,27,3.70
2012,11,10,08,28,3.70
2012,11,10,08,29,3.70
2012,11,10,08,30,3.70
2012,11,10,08,31,3.80
2012,11,10,08,32,3.80
2012,11,10,08,33,3.80
2012,11,10,08,34,3.80
2012,11,10,08,35,3.90
2012,11,10,08,36,3.90
2012,11,10,08,37,3.90
2012,11,10,08,38,3.90
2012,11,10,08,39,3.90
2012,11,10,08,40,4.00
2012,11,10,08,41,4.00
2012,11,10,08,42,4.00
2012,11,10,08,43,4.10
2012,11,10,08,44,4.10
2012,11,10,08,45,4.10
2012,11,10,08,46,4.10
2012,11,10,08,47,4.20
2012,11,10,08,48,4.10
2012,11,10,08,49,4.20
2012,11,10,08,50,4.20
2012,11,10,08,51,4.20
2012,11,10,08,52,4.20
2012,11,10,08,53,4.20
2012,11,10,08,54,4.20
2012,11,10,08,55,4.20
2012,11,10,08,56,4.20
2012,11,10,08,57,4.20
2012,11,10,08,58,4.10
2012,11,10,08,59,4.10
2012,11,10,09,00,4.10
2012,11,10,09,01,4.10
2012,11,10,09,02,4.10
2012,11,10,09,03,4.10
2012,11,10,09,04,4.10
2012,11,10,09,05,4.10
2012,11,10,09,06,4.10
2012,11,10,09,07,4.10
2012,11,10,09,08,4.20
2012,11,10,09,09,4.20
2012,11,10,09,10,4.20
2012,11,10,09,11,4.20
2012,11,10,09,12,4.20
2012,11,10,09,13,4.20
2012,11,10,09,14,4.20
2012,11,10,09,15,4.20
2012,11,10,09,16,4.20
2012,11,10,09,17,4.20
2012,11,10,09,18,4.20
2012,11,10,09,19,4.20
2012,11,10,09,20,4.20
2012,11,10,09,21,4.20
2012,11,10,09,22,4.30
2012,11,10,09,23,4.30
2012,11,10,09,24,4.40
2012,11,10,09,25,4.40
2012,11,10,09,26,4.40
2012,11,10,09,27,4.40
2012,11,10,09,28,4.40
2012,11,10,09,29,4.40
2012,11,10,09,30,4.40
2012,11,10,09,31,4.40
2012,11,10,09,32,4.40
2012,11,10,09,33,4.50
2012,11,10,09,34,4.50
2012,11,10,09,35,4.50
2012,11,10,09,36,4.60
2012,11,10,09,37,4.60
2012,11,10,09,38,4.60
2012,11,10,09,39,4.60
2012,11,10,09,40,4.60
2012,11,10,09,41,4.60
2012,11,10,09,42,4.60
2012,11,10,09,43,4.60
2012,11,10,09,44,4.60
2012,11,10,09,45,4.60
2012,11,10,09,46,4.50
2012,11,10,09,47,4.50
2012,11,10,09,48,4.40
2012,11,10,09,49,4.40
2012,11,10,09,50,4.40
2012,11,10,09,51,4.40
2012,11,10,09,52,4.40
2012,11,10,09,53,4.40
2012,11,10,09,54,4.40
2012,11,10,09,55,4.40
2012,11,10,09,56,4.40
2012,11,10,09,57,4.50
2012,11,10,09,58,4.50
2012,11,10,09,59,4.60
2012,11,10,10,00,4.60
2012,11,10,10,01,4.60
2012,11,10,10,02,4.60
2012,11,10,10,03,4.60
2012,11,10,10,04,4.60
2012,11,10,10,05,4.70
2012,11,10,10,06,4.70
2012,11,10,10,07,4.70
2012,11,10,10,08,4.70
2012,11,10,10,09,4.70
2012,11,10,10,10,4.80
2012,11,10,10,11,4.80
2012,11,10,10,12,4.90
2012,11,10,10,13,4.90
2012,11,10,10,14,4.80
2012,11,10,10,15,4.80
2012,11,10,10,16,4.80
2012,11,10,10,17,4.80
2012,11,10,10,18,4.80
2012,11,10,10,19,4.80
2012,11,10,10,20,4.80
2012,11,10,10,21,4.80
2012,11,10,10,22,4.70
2012,11,10,10,23,4.70
2012,11,10,10,24,4.70
2012,11,10,10,25,4.70
2012,11,10,10,26,4.70
2012,11,10,10,27,4.80
2012,11,10,10,28,4.80
2012,11,10,10,29,4.80
2012,11,10,10,30,4.90
2012,11,10,10,31,4.90
2012,11,10,10,32,4.90
2012,11,10,10,33,4.90
2012,11,10,10,34,4.90
2012,11,10,10,35,4.90
2012,11,10,10,36,4.90
2012,11,10,10,37,4.90
2012,11,10,10,38,4.90
2012,11,10,10,39,4.90
2012,11,10,10,40,4.80
2012,11,10,10,41,4.80
2012,11,10,10,42,4.80
2012,11,10,10,43,4.90
2012,11,10,10,44,4.90
2012,11,10,10,45,5.00
2012,11,10,10,46,5.00
2012,11,10,10,47,5.00
2012,11,10,10,48,5.00
2012,11,10,10,49,5.00
2012,11,10,10,50,4.90
2012,11,10,10,51,5.00
2012,11,10,10,52,5.00
2012,11,10,10,53,5.10
2012,11,10,10,54,5.10
2012,11,10,10,55,5.20
2012,11,10,10,56,5.20
2012,11,10,10,57,5.10
2012,11,10,10,58,5.10
2012,11,10,10,59,5.10
2012,11,10,11,00,5.10
2012,11,10,11,01,5.10
2012,11,10,11,02,5.10
2012,11,10,11,03,5.20
2012,11,10,11,04,5.20
2012,11,10,11,05,5.20
2012,11,10,11,06,5.20
2012,11,10,11,07,5.20
2012,11,10,11,08,5.10
2012,11,10,11,09,5.10
2012,11,10,11,10,5.10
2012,11,10,11,11,5.10
2012,11,10,11,12,5.10
2012,11,10,11,13,5.10
2012,11,10,11,14,5.10
2012,11,10,11,15,5.10
2012,11,10,11,16,5.10
2012,11,10,11,17,5.10
2012,11,10,11,18,5.00
2012,11,10,11,19,4.90
2012,11,10,11,20,5.00
2012,11,10,11,21,5.10
2012,11,10,11,22,5.10
2012,11,10,11,23,5.10
2012,11,10,11,24,5.00
2012,11,10,11,25,5.00
2012,11,10,11,26,5.00
2012,11,10,11,27,5.00
2012,11,10,11,28,5.00
2012,11,10,11,29,5.00
2012,11,10,11,30,4.90
2012,11,10,11,31,4.90
2012,11,10,11,32,5.00
2012,11,10,11,33,5.00
2012,11,10,11,34,5.00
2012,11,10,11,35,5.10
2012,11,10,11,36,5.00
2012,11,10,11,37,5.00
2012,11,10,11,38,4.90
2012,11,10,11,39,4.90
2012,11,10,11,40,4.90
2012,11,10,11,41,4.90
2012,11,10,11,42,5.00
2012,11,10,11,43,4.90
2012,11,10,11,44,4.90
2012,11,10,11,45,4.90
2012,11,10,11,46,5.00
2012,11,10,11,47,5.10
2012,11,10,11,48,5.10
2012,11,10,11,49,5.20
2012,11,10,11,50,5.20
2012,11,10,11,51,5.30
2012,11,10,11,52,5.30
2012,11,10,11,53,5.20
2012,11,10,11,54,5.20
2012,11,10,11,55,5.20
2012,11,10,11,56,5.20
2012,11,10,11,57,5.10
2012,11,10,11,58,5.20
2012,11,10,11,59,5.20
2012,11,10,12,00,5.20
2012,11,10,12,01,5.20
2012,11,10,12,02,5.20
2012,11,10,12,03,5.20
2012,11,10,12,04,5.20
2012,11,10,12,05,5.20
2012,11,10,12,06,5.20
2012,11,10,12,07,5.20
2012,11,10,12,08,5.20
2012,11,10,12,09,5.20
2012,11,10,12,10,5.20
2012,11,10,12,11,5.20
2012,11,10,12,12,5.20
2012,11,10,12,13,5.20
2012,11,10,12,14,5.20
2012,11,10,12,15,5.20
2012,11,10,12,16,5.20
2012,11,10,12,17,5.20
2012,11,10,12,18,5.20
2012,11,10,12,19,5.20
2012,11,10,12,20,5.30
2012,11,10,12,21,5.30
2012,11,10,12,22,5.40
2012,11,10,12,23,5.40
2012,11,10,12,24,5.40
2012,11,10,12,25,5.40
2012,11,10,12,26,5.40
2012,11,10,12,27,5.40
2012,11,10,12,28,5.30
2012,11,10,12,29,5.30
2012,11,10,12,30,5.30
2012,11,10,12,31,5.30
2012,11,10,12,32,5.30
2012,11,10,12,33,5.20
2012,11,10,12,34,5.20
2012,11,10,12,35,5.20
2012,11,10,12,36,5.20
2012,11,10,12,37,5.30
2012,11,10,12,38,5.30
2012,11,10,12,39,5.30
2012,11,10,12,40,5.30
2012,11,10,12,41,5.20
2012,11,10,12,42,5.20
2012,11,10,12,43,5.30
2012,11,10,12,44,5.30
2012,11,10,12,45,5.30
2012,11,10,12,46,5.30
2012,11,10,12,47,5.30
2012,11,10,12,48,5.30
2012,11,10,12,49,5.30
2012,11,10,12,50,5.30
2012,11,10,12,51,5.30
2012,11,10,12,52,5.30
2012,11,10,12,53,5.30
2012,11,10,12,54,5.30
2012,11,10,12,55,5.30
2012,11,10,12,56,5.40
2012,11,10,12,57,5.40
2012,11,10,12,58,5.50
2012,11,10,12,59,5.50
2012,11,10,13,00,5.60
2012,11,10,13,01,5.60
2012,11,10,13,02,5.60
2012,11,10,13,03,5.60
2012,11,10,13,04,5.60
2012,11,10,13,05,5.50
2012,11,10,13,06,5.50
2012,11,10,13,07,5.60
2012,11,10,13,08,5.60
2012,11,10,13,09,5.70
2012,11,10,13,10,5.70
2012,11,10,13,11,5.60
2012,11,10,13,12,5.50
2012,11,10,13,13,5.50
2012,11,10,13,14,5.40
2012,11,10,13,15,5.40
2012,11,10,13,16,5.40
2012,11,10,13,17,5.50
2012,11,10,13,18,5.50
2012,11,10,13,19,5.60
2012,11,10,13,20,5.60
2012,11,10,13,21,5.60
2012,11,10,13,22,5.60
2012,11,10,13,23,5.60
2012,11,10,13,24,5.60
2012,11,10,13,25,5.60
2012,11,10,13,26,5.60
2012,11,10,13,27,5.50
2012,11,10,13,28,5.50
2012,11,10,13,29,5.40
2012,11,10,13,30,5.40
2012,11,10,13,31,5.40
2012,11,10,13,32,5.50
2012,11,10,13,33,5.50
2012,11,10,13,34,5.60
2012,11,10,13,35,5.60
2012,11,10,13,36,5.50
2012,11,10,13,37,5.50
2012,11,10,13,38,5.50
2012,11,10,13,39,5.60
2012,11,10,13,40,5.60
2012,11,10,13,41,5.60
2012,11,10,13,42,5.60
2012,11,10,13,43,5.60
2012,11,10,13,44,5.60
2012,11,10,13,45,5.60
2012,11,10,13,46,5.60
2012,11,10,13,47,5.50
2012,11,10,13,48,5.50
2012,11,10,13,49,5.50
2012,11,10,13,50,5.50
2012,11,10,13,51,5.50
2012,11,10,13,52,5.50
2012,11,10,13,53,5.50
2012,11,10,13,54,5.50
2012,11,10,13,55,5.60
2012,11,10,13,56,5.60
2012,11,10,13,57,5.70
2012,11,10,13,58,5.60
2012,11,10,13,59,5.60
2012,11,10,14,00,5.70
2012,11,10,14,01,5.70
2012,11,10,14,02,5.70
2012,11,10,14,03,5.70
2012,11,10,14,04,5.60
2012,11,10,14,05,5.60
2012,11,10,14,06,5.60
2012,11,10,14,07,5.70
2012,11,10,14,08,5.70
2012,11,10,14,09,5.70
2012,11,10,14,10,5.70
2012,11,10,14,11,5.80
2012,11,10,14,12,5.80
2012,11,10,14,13,5.80
2012,11,10,14,14,5.70
2012,11,10,14,15,5.70
2012,11,10,14,16,5.60
2012,11,10,14,17,5.60
2012,11,10,14,18,5.60
2012,11,10,14,19,5.60
2012,11,10,14,20,5.60
2012,11,10,14,21,5.60
2012,11,10,14,22,5.60
2012,11,10,14,23,5.60
2012,11,10,14,24,5.60
2012,11,10,14,25,5.60
2012,11,10,14,26,5.60
2012,11,10,14,27,5.60
2012,11,10,14,28,5.60
2012,11,10,14,29,5.70
2012,11,10,14,30,5.70
2012,11,10,14,31,5.70
2012,11,10,14,32,5.70
2012,11,10,14,33,5.70
2012,11,10,14,34,5.70
2012,11,10,14,35,5.70
2012,11,10,14,36,5.70
2012,11,10,14,37,5.60
2012,11,10,14,38,5.60
2012,11,10,14,39,5.60
2012,11,10,14,40,5.60
2012,11,10,14,41,5.70
2012,11,10,14,42,5.70
2012,11,10,14,43,5.70
2012,11,10,14,44,5.70
2012,11,10,14,45,5.70
2012,11,10,14,46,5.60
2012,11,10,14,47,5.60
2012,11,10,14,48,5.60
2012,11,10,14,49,5.60
2012,11,10,14,50,5.60
2012,11,10,14,51,5.60
2012,11,10,14,52,5.70
2012,11,10,14,53,5.70
2012,11,10,14,54,5.70
2012,11,10,14,55,5.70
2012,11,10,14,56,5.70
2012,11,10,14,57,5.70
2012,11,10,14,58,5.70
2012,11,10,14,59,5.70
2012,11,10,15,00,5.70
2012,11,10,15,01,5.70
2012,11,10,15,02,5.60
2012,11,10,15,03,5.60
2012,11,10,15,04,5.60
2012,11,10,15,05,5.60
2012,11,10,15,06,5.60
2012,11,10,15,07,5.60
2012,11,10,15,08,5.60
2012,11,10,15,09,5.60
2012,11,10,15,10,5.60
2012,11,10,15,11,5.60
2012,11,10,15,12,5.60
2012,11,10,15,13,5.60
2012,11,10,15,14,5.60
2012,11,10,15,15,5.60
2012,11,10,15,16,5.60
2012,11,10,15,17,5.60
2012,11,10,15,18,5.60
2012,11,10,15,19,5.60
2012,11,10,15,20,5.60
2012,11,10,15,21,5.60
2012,11,10,15,22,5.60
2012,11,10,15,23,5.60
2012,11,10,15,24,5.60
2012,11,10,15,25,5.60
2012,11,10,15,26,5.60
2012,11,10,15,27,5.60
2012,11,10,15,28,5.60
2012,11,10,15,29,5.60
2012,11,10,15,30,5.60
2012,11,10,15,31,5.60
2012,11,10,15,32,5.60
2012,11,10,15,33,5.60
2012,11,10,15,34,5.60
2012,11,10,15,35,5.60
2012,11,10,15,36,5.60
2012,11,10,15,37,5.60
2012,11,10,15,38,5.60
2012,11,10,15,39,5.50
2012,11,10,15,40,5.50
2012,11,10,15,41,5.50
2012,11,10,15,42,5.40
2012,11,10,15,43,5.40
2012,11,10,15,44,5.40
2012,11,10,15,45,5.40
2012,11,10,15,46,5.40
2012,11,10,15,47,5.40
2012,11,10,15,48,5.40
2012,11,10,15,49,5.40
2012,11,10,15,50,5.40
2012,11,10,15,51,5.40
2012,11,10,15,52,5.40
2012,11,10,15,53,5.40
2012,11,10,15,54,5.40
2012,11,10,15,55,5.40
2012,11,10,15,56,5.40
2012,11,10,15,57,5.40
2012,11,10,15,58,5.40
2012,11,10,15,59,5.40
2012,11,10,16,00,5.40
2012,11,10,16,01,5.40
2012,11,10,16,02,5.30
2012,11,10,16,03,5.40
2012,11,10,16,04,5.40
2012,11,10,16,05,5.30
2012,11,10,16,06,5.30
2012,11,10,16,07,5.30
2012,11,10,16,08,5.30
2012,11,10,16,09,5.30
2012,11,10,16,10,5.30
2012,11,10,16,11,5.30
2012,11,10,16,12,5.30
2012,11,10,16,13,5.30
2012,11,10,16,14,5.30
2012,11,10,16,15,5.20
2012,11,10,16,16,5.20
2012,11,10,16,17,5.20
2012,11,10,16,18,5.20
2012,11,10,16,19,5.20
2012,11,10,16,20,5.10
2012,11,10,16,21,5.10
2012,11,10,16,22,5.10
2012,11,10,16,23,5.00
2012,11,10,16,24,5.00
2012,11,10,16,25,4.90
2012,11,10,16,26,4.90
2012,11,10,16,27,4.90
2012,11,10,16,28,4.80
2012,11,10,16,29,4.80
2012,11,10,16,30,4.80
2012,11,10,16,31,4.70
2012,11,10,16,32,4.60
2012,11,10,16,33,4.50
2012,11,10,16,34,4.50
2012,11,10,16,35,4.40
2012,11,10,16,36,4.30
2012,11,10,16,37,4.30
2012,11,10,16,38,4.30
2012,11,10,16,39,4.20
2012,11,10,16,40,4.20
2012,11,10,16,41,4.10
2012,11,10,16,42,4.10
2012,11,10,16,43,4.00
2012,11,10,16,44,4.00
2012,11,10,16,45,3.90
2012,11,10,16,46,3.90
2012,11,10,16,47,3.80
2012,11,10,16,48,3.80
2012,11,10,16,49,3.80
2012,11,10,16,50,3.70
2012,11,10,16,51,3.70
2012,11,10,16,52,3.60
2012,11,10,16,53,3.60
2012,11,10,16,54,3.50
2012,11,10,16,55,3.50
2012,11,10,16,56,3.40
2012,11,10,16,57,3.40
2012,11,10,16,58,3.40
2012,11,10,16,59,3.30
2012,11,10,17,00,3.30
2012,11,10,17,01,3.30
2012,11,10,17,02,3.20
2012,11,10,17,03,3.20
2012,11,10,17,04,3.10
2012,11,10,17,05,3.00
2012,11,10,17,06,2.90
2012,11,10,17,07,2.90
2012,11,10,17,08,2.80
2012,11,10,17,09,2.80
2012,11,10,17,10,2.80
2012,11,10,17,11,2.80
2012,11,10,17,12,2.70
2012,11,10,17,13,2.70
2012,11,10,17,14,2.70
2012,11,10,17,15,2.70
2012,11,10,17,16,2.60
2012,11,10,17,17,2.60
2012,11,10,17,18,2.60
2012,11,10,17,19,2.50
2012,11,10,17,20,2.50
2012,11,10,17,21,2.40
2012,11,10,17,22,2.40
2012,11,10,17,23,2.30
2012,11,10,17,24,2.30
2012,11,10,17,25,2.30
2012,11,10,17,26,2.20
2012,11,10,17,27,2.20
2012,11,10,17,28,2.10
2012,11,10,17,29,2.10
2012,11,10,17,30,2.10
2012,11,10,17,31,2.00
2012,11,10,17,32,2.00
2012,11,10,17,33,1.90
2012,11,10,17,34,1.90
2012,11,10,17,35,1.90
2012,11,10,17,36,1.90
2012,11,10,17,37,1.90
2012,11,10,17,38,1.90
2012,11,10,17,39,1.90
2012,11,10,17,40,1.80
2012,11,10,17,41,1.80
2012,11,10,17,42,1.80
2012,11,10,17,43,1.80
2012,11,10,17,44,1.70
2012,11,10,17,45,1.70
2012,11,10,17,46,1.70
2012,11,10,17,47,1.70
2012,11,10,17,48,1.60
2012,11,10,17,49,1.60
2012,11,10,17,50,1.60
2012,11,10,17,51,1.60
2012,11,10,17,52,1.60
2012,11,10,17,53,1.60
2012,11,10,17,54,1.50
2012,11,10,17,55,1.50
2012,11,10,17,56,1.40
2012,11,10,17,57,1.40
2012,11,10,17,58,1.40
2012,11,10,17,59,1.40
2012,11,10,18,00,1.30
2012,11,10,18,01,1.30
2012,11,10,18,02,1.30
2012,11,10,18,03,1.30
2012,11,10,18,04,1.30
2012,11,10,18,05,1.30
2012,11,10,18,06,1.30